Radiosonde details



Informationen :

Serial : D26002478
Type : Graw DFM
Frequency : 403.210MHz
Launchsite : Spokane, Wa.
Nearest town : Chewelah, US (26.5km)

Altitude (Max) : 33913m at 2026-09-05 07:19:51
Speed (Max) : 128km/h at altitude 9765m

Average speed : 48km/h
Average ascent rate : 5m/s
Average descent rate : -16m/s
Ascent rate (Max) : 10.4m/s
Descent rate (Max): -41.5m/s

First frame :
WB7NNF at 2026-09-05 05:42:59 at altitude 5659m (OG: 4913m)
Last frame :
WB7NNF at 2026-09-05 07:44:52 at altitude 9962m (OG: 8973m)

Flighttime : 2h1m53s
Ascent time : 1h36m52s
Descent time : 25m1s
Uptime : -
Killtimer : -

Distance (Straight line distance): 76km

Distance (Route):


Frames : 337


Measurement :

Temperature : -41.7°C
Humidity : 0%
Pressure : 0hPa


Vertical profile (SkewT) :


Elevation profile :



Receiving stations :


Receiver Frames First received Last received
WB7NNF 337 2026-09-05 05:42:59 2026-09-05 07:44:52

Share per receiver :



All frames :


Receiver Date Latitude Longitude Direction Speed Altitude Climb Temperature Humidity Pressure Voltage Killtimer Uptime BKT XDATA
WB7NNF2026-09-05 07:44:5248.37462-117.3890323°91km/h9962m-8.3m/s-41.7°C0%0hPa0V00:00:0000:00:0000:00:00
WB7NNF2026-09-05 07:43:4948.36309-117.3942562km/h10439m-7.2m/s-41.8°C0%0hPa0V00:00:0000:00:0000:00:00
WB7NNF2026-09-05 07:43:0848.35500-117.3944799km/h10769m-8.8m/s-41.8°C0%0hPa0V00:00:0000:00:0000:00:00
WB7NNF2026-09-05 07:42:4748.34981-117.3953412°102km/h10941m-8.6m/s-40.7°C0%0hPa0V00:00:0000:00:0000:00:00
WB7NNF2026-09-05 07:42:2748.34473-117.3972514°95km/h11117m-8.7m/s-41.0°C0%0hPa0V00:00:0000:00:0000:00:00
WB7NNF2026-09-05 07:42:0648.33995-117.3990617°95km/h11287m-8.6m/s-41.3°C0%0hPa0V00:00:0000:00:0000:00:00
WB7NNF2026-09-05 07:41:4648.33545-117.4013621°84km/h11474m-9.0m/s-41.6°C0%0hPa0V00:00:0000:00:0000:00:00
WB7NNF2026-09-05 07:41:2548.33150-117.4035623°77km/h11664m-9.3m/s-42.0°C0%0hPa0V00:00:0000:00:0000:00:00
WB7NNF2026-09-05 07:41:0448.32804-117.4058425°75km/h11845m-8.5m/s-42.4°C0%0hPa0V00:00:0000:00:0000:00:00
WB7NNF2026-09-05 07:40:4448.32409-117.4083724°84km/h12009m-7.9m/s-42.9°C0%0hPa0V00:00:0000:00:0000:00:00
WB7NNF2026-09-05 07:40:2348.32025-117.4107924°78km/h12163m-7.7m/s-43.2°C0%0hPa0V00:00:0000:00:0000:00:00
WB7NNF2026-09-05 07:40:0348.31675-117.4128015°62km/h12330m-10.0m/s-44.0°C0%0hPa0V00:00:0000:00:0000:00:00
WB7NNF2026-09-05 07:39:4248.31321-117.4142318°77km/h12507m-10.1m/s-44.8°C0%0hPa0V00:00:0000:00:0000:00:00
WB7NNF2026-09-05 07:39:2248.30926-117.4158212°78km/h12715m-8.5m/s-45.5°C0%0hPa0V00:00:0000:00:0000:00:00
WB7NNF2026-09-05 07:38:4148.30135-117.4192722°80km/h13122m-9.7m/s-45.9°C0%0hPa0V00:00:0000:00:0000:00:00
WB7NNF2026-09-05 07:38:2048.29792-117.4211718°66km/h13323m-11.9m/s-46.0°C0%0hPa0V00:00:0000:00:0000:00:00
WB7NNF2026-09-05 07:38:0048.29465-117.4224912°66km/h13544m-11.5m/s-46.5°C0%0hPa0V00:00:0000:00:0000:00:00
WB7NNF2026-09-05 07:37:3948.29132-117.4231671km/h13757m-10.8m/s-47.7°C0%0hPa0V00:00:0000:00:0000:00:00
WB7NNF2026-09-05 07:37:1948.28785-117.4237762km/h13973m-9.1m/s-48.1°C0%0hPa0V00:00:0000:00:0000:00:00
WB7NNF2026-09-05 07:36:5848.28510-117.4243810°49km/h14159m-9.6m/s-48.1°C0%0hPa0V00:00:0000:00:0000:00:00
WB7NNF2026-09-05 07:36:3848.28225-117.4255119°62km/h14372m-8.9m/s-49.5°C0%0hPa0V00:00:0000:00:0000:00:00
WB7NNF2026-09-05 07:36:1748.27886-117.4272020°71km/h14590m-9.3m/s-50.8°C0%0hPa0V00:00:0000:00:0000:00:00
WB7NNF2026-09-05 07:35:5648.27563-117.4289516°64km/h14803m-12.3m/s-51.1°C0%0hPa0V00:00:0000:00:0000:00:00
WB7NNF2026-09-05 07:35:3648.27268-117.4299253km/h15058m-11.3m/s-51.2°C0%0hPa0V00:00:0000:00:0000:00:00
WB7NNF2026-09-05 07:35:1548.26987-117.4306610°55km/h15301m-13.4m/s-51.4°C0%0hPa0V00:00:0000:00:0000:00:00
WB7NNF2026-09-05 07:34:5548.26688-117.4314016°60km/h15548m-11.5m/s-51.8°C0%0hPa0V00:00:0000:00:0000:00:00
WB7NNF2026-09-05 07:34:3448.26404-117.4328612°49km/h15773m-10.6m/s-51.0°C0%0hPa0V00:00:0000:00:0000:00:00
WB7NNF2026-09-05 07:34:1448.26171-117.4330631km/h16015m-10.2m/s-48.1°C0%0hPa0V00:00:0000:00:0000:00:00
WB7NNF2026-09-05 07:33:5348.26045-117.43298341°18km/h16225m-13.1m/s-48.8°C0%0hPa0V00:00:0000:00:0000:00:00
WB7NNF2026-09-05 07:33:3348.25958-117.43307359°16km/h16472m-12.4m/s-49.9°C0%0hPa0V00:00:0000:00:0000:00:00
WB7NNF2026-09-05 07:33:1248.25803-117.43271349°37km/h16731m-11.7m/s-51.4°C0%0hPa0V00:00:0000:00:0000:00:00
WB7NNF2026-09-05 07:32:5248.25577-117.43132344°60km/h16993m-14.7m/s-52.5°C0%0hPa0V00:00:0000:00:0000:00:00
WB7NNF2026-09-05 07:32:3148.25323-117.4309211°47km/h17262m-12.0m/s-52.9°C0%0hPa0V00:00:0000:00:0000:00:00
WB7NNF2026-09-05 07:32:1148.25121-117.4320429°38km/h17520m-14.3m/s-53.3°C0%0hPa0V00:00:0000:00:0000:00:00
WB7NNF2026-09-05 07:31:5048.24895-117.4326658km/h17800m-15.5m/s-53.3°C0%0hPa0V00:00:0000:00:0000:00:00
WB7NNF2026-09-05 07:31:3048.24617-117.4334928°37km/h18113m-12.2m/s-52.7°C0%0hPa0V00:00:0000:00:0000:00:00
WB7NNF2026-09-05 07:31:0948.24475-117.4340221°20km/h18414m-16.2m/s-52.9°C0%0hPa0V00:00:0000:00:0000:00:00
WB7NNF2026-09-05 07:30:4848.24381-117.43427341°9km/h18706m-15.5m/s-53.6°C0%0hPa0V00:00:0000:00:0000:00:00
WB7NNF2026-09-05 07:30:2848.24343-117.43423347°11km/h18997m-13.7m/s-53.0°C0%0hPa0V00:00:0000:00:0000:00:00
WB7NNF2026-09-05 07:30:0748.24286-117.43417258°7km/h19290m-15.3m/s-54.1°C0%0hPa0V00:00:0000:00:0000:00:00
WB7NNF2026-09-05 07:29:4748.24253-117.43370325°16km/h19611m-12.6m/s-54.3°C0%0hPa0V00:00:0000:00:0000:00:00
WB7NNF2026-09-05 07:29:2648.24187-117.43230298°40km/h19913m-17.2m/s-54.1°C0%0hPa0V00:00:0000:00:0000:00:00
WB7NNF2026-09-05 07:29:0648.24066-117.43030331°31km/h20225m-16.0m/s-55.1°C0%0hPa0V00:00:0000:00:0000:00:00
WB7NNF2026-09-05 07:28:4548.23952-117.42975339°29km/h20550m-17.3m/s-53.3°C0%0hPa0V00:00:0000:00:0000:00:00
WB7NNF2026-09-05 07:28:2548.23883-117.4296267°2km/h20925m-18.8m/s-53.6°C0%0hPa0V00:00:0000:00:0000:00:00
WB7NNF2026-09-05 07:28:0448.23889-117.43000172°7km/h21283m-18.1m/s-55.9°C0%0hPa0V00:00:0000:00:0000:00:00
WB7NNF2026-09-05 07:27:4448.23934-117.42841278°33km/h21646m-17.1m/s-55.3°C0%0hPa0V00:00:0000:00:0000:00:00
WB7NNF2026-09-05 07:27:2348.23837-117.42633330°37km/h22010m-20.4m/s-54.9°C0%0hPa0V00:00:0000:00:0000:00:00
WB7NNF2026-09-05 07:27:0348.23675-117.4261829°15km/h22407m-18.1m/s-54.8°C0%0hPa0V00:00:0000:00:0000:00:00
WB7NNF2026-09-05 07:26:4248.23673-117.42616235°4km/h22795m-18.7m/s-53.3°C0%0hPa0V00:00:0000:00:0000:00:00
WB7NNF2026-09-05 07:26:2248.23725-117.42601225°18km/h23203m-20.4m/s-53.6°C0%0hPa0V00:00:0000:00:0000:00:00
WB7NNF2026-09-05 07:26:0148.23729-117.42480306°26km/h23621m-21.8m/s-55.0°C0%0hPa0V00:00:0000:00:0000:00:00
WB7NNF2026-09-05 07:25:4048.23682-117.4242468°7km/h24034m-22.4m/s-53.9°C0%0hPa0V00:00:0000:00:0000:00:00
WB7NNF2026-09-05 07:25:2048.23668-117.42377272°9km/h24498m-25.3m/s-53.3°C0%0hPa0V00:00:0000:00:0000:00:00
WB7NNF2026-09-05 07:24:5948.23691-117.42300211°16km/h24922m-24.0m/s-51.5°C0%0hPa0V00:00:0000:00:0000:00:00
WB7NNF2026-09-05 07:24:3948.23668-117.42231329°13km/h25401m-24.3m/s-50.3°C0%0hPa0V00:00:0000:00:0000:00:00
WB7NNF2026-09-05 07:24:1848.23661-117.42197192°24km/h25886m-25.6m/s-49.9°C0%0hPa0V00:00:0000:00:0000:00:00
WB7NNF2026-09-05 07:23:3748.23776-117.4206362°11km/h26994m-26.9m/s-50.3°C0%0hPa0V00:00:0000:00:0000:00:00
WB7NNF2026-09-05 07:23:1748.23863-117.42108192°15km/h27563m-28.9m/s-49.7°C0%0hPa0V00:00:0000:00:0000:00:00
WB7NNF2026-09-05 07:22:5648.23909-117.42046257°15km/h28117m-26.4m/s-50.3°C0%0hPa0V00:00:0000:00:0000:00:00
WB7NNF2026-09-05 07:22:3648.23945-117.4201117°4km/h28743m-30.6m/s-48.3°C0%0hPa0V00:00:0000:00:0000:00:00
WB7NNF2026-09-05 07:22:1548.23976-117.42030206°24km/h29378m-34.0m/s-46.2°C0%0hPa0V00:00:0000:00:0000:00:00
WB7NNF2026-09-05 07:21:5548.24052-117.42010139°4km/h30037m-31.3m/s-45.1°C0%0hPa0V00:00:0000:00:0000:00:00
WB7NNF2026-09-05 07:21:3448.24073-117.42011128°13km/h30686m-34.4m/s-43.2°C0%0hPa0V00:00:0000:00:0000:00:00
WB7NNF2026-09-05 07:21:1448.24103-117.41998352°4km/h31312m-30.4m/s-43.0°C0%0hPa0V00:00:0000:00:0000:00:00
WB7NNF2026-09-05 07:20:5348.24101-117.42025191°13km/h31973m-36.9m/s-42.5°C0%0hPa0V00:00:0000:00:0000:00:00
WB7NNF2026-09-05 07:20:3248.24121-117.42034288°20km/h32695m-41.5m/s-41.5°C0%0hPa0V00:00:0000:00:0000:00:00
WB7NNF2026-09-05 07:20:1248.24099-117.41994144°24km/h33413m-26.5m/s-40.2°C0%0hPa0V00:00:0000:00:0000:00:00
WB7NNF2026-09-05 07:19:5148.24101-117.42023204°49km/h33913m-3.9m/s-37.7°C0%0hPa0V00:00:0000:00:0000:00:00
WB7NNF2026-09-05 07:19:1048.24086-117.42166104°38km/h33681m8.1m/s-39.5°C0%0hPa0V00:00:0000:00:0000:00:00
WB7NNF2026-09-05 07:18:5048.24078-117.42121324°47km/h33561m8.5m/s-40.6°C0%0hPa0V00:00:0000:00:0000:00:00
WB7NNF2026-09-05 07:18:2948.24064-117.42089173°46km/h33437m5.0m/s-41.3°C0%0hPa0V00:00:0000:00:0000:00:00
WB7NNF2026-09-05 07:18:0748.24043-117.4206713°40km/h33317m3.0m/s-41.4°C0%0hPa0V00:00:0000:00:0000:00:00
WB7NNF2026-09-05 07:17:4448.24026-117.42106293°49km/h33184m6.2m/s-42.0°C0%0hPa0V00:00:0000:00:0000:00:00
WB7NNF2026-09-05 07:17:0348.24033-117.41793304°68km/h32927m1.8m/s-42.6°C0%0hPa0V00:00:0000:00:0000:00:00
WB7NNF2026-09-05 07:16:4348.24054-117.41661217°46km/h32791m4.2m/s-42.3°C0%0hPa0V00:00:0000:00:0000:00:00
WB7NNF2026-09-05 07:16:2148.24068-117.41500308°46km/h32654m0.5m/s-41.7°C0%0hPa0V00:00:0000:00:0000:00:00
WB7NNF2026-09-05 07:16:0148.24058-117.41469199°47km/h32510m2.8m/s-42.7°C0%0hPa0V00:00:0000:00:0000:00:00
WB7NNF2026-09-05 07:15:3848.24022-117.4143529°53km/h32375m0.2m/s-43.2°C0%0hPa0V00:00:0000:00:0000:00:00
WB7NNF2026-09-05 07:15:1548.24046-117.41408352°35km/h32235m10.1m/s-43.6°C0%0hPa0V00:00:0000:00:0000:00:00
WB7NNF2026-09-05 07:14:5548.24118-117.41438212°57km/h32102m9.2m/s-43.4°C0%0hPa0V00:00:0000:00:0000:00:00
WB7NNF2026-09-05 07:14:3448.24175-117.4143868°13km/h31983m6.5m/s-43.2°C0%0hPa0V00:00:0000:00:0000:00:00
WB7NNF2026-09-05 07:14:1448.24197-117.41549200°18km/h31856m3.9m/s-43.5°C0%0hPa0V00:00:0000:00:0000:00:00
WB7NNF2026-09-05 07:13:5348.24157-117.41549343°51km/h31731m2.7m/s-43.5°C0%0hPa0V00:00:0000:00:0000:00:00
WB7NNF2026-09-05 07:13:3348.24112-117.41513180°31km/h31602m6.5m/s-43.5°C0%0hPa0V00:00:0000:00:0000:00:00
WB7NNF2026-09-05 07:13:1248.24077-117.41440337°42km/h31475m6.8m/s-43.6°C0%0hPa0V00:00:0000:00:0000:00:00
WB7NNF2026-09-05 07:12:5148.24069-117.41367209°11km/h31354m9.8m/s-43.8°C0%0hPa0V00:00:0000:00:0000:00:00
WB7NNF2026-09-05 07:12:3148.24075-117.41315292°7km/h31225m9.2m/s-43.8°C0%0hPa0V00:00:0000:00:0000:00:00
WB7NNF2026-09-05 07:12:1048.24076-117.41258315°29km/h31089m4.0m/s-43.8°C0%0hPa0V00:00:0000:00:0000:00:00
WB7NNF2026-09-05 07:11:4848.24100-117.41217341°24km/h30941m10.4m/s-43.2°C0%0hPa0V00:00:0000:00:0000:00:00
WB7NNF2026-09-05 07:11:2748.24103-117.41160127°4km/h30815m8.6m/s-43.3°C0%0hPa0V00:00:0000:00:0000:00:00
WB7NNF2026-09-05 07:11:0748.24134-117.41173295°15km/h30680m10.0m/s-43.4°C0%0hPa0V00:00:0000:00:0000:00:00
WB7NNF2026-09-05 07:10:4648.24081-117.4120823°26km/h30554m4.1m/s-44.0°C0%0hPa0V00:00:0000:00:0000:00:00
WB7NNF2026-09-05 07:10:2648.24089-117.41205252°15km/h30423m6.1m/s-44.9°C0%0hPa0V00:00:0000:00:0000:00:00
WB7NNF2026-09-05 07:10:0448.24087-117.41152271°22km/h30296m6.1m/s-45.0°C0%0hPa0V00:00:0000:00:0000:00:00
WB7NNF2026-09-05 07:09:4348.24118-117.4113929km/h30165m8.0m/s-45.8°C0%0hPa0V00:00:0000:00:0000:00:00
WB7NNF2026-09-05 07:09:2248.24142-117.41130190°24km/h30047m9.0m/s-46.1°C0%0hPa0V00:00:0000:00:0000:00:00
WB7NNF2026-09-05 07:09:0248.24205-117.41126310°11km/h29923m6.5m/s-46.6°C0%0hPa0V00:00:0000:00:0000:00:00
WB7NNF2026-09-05 07:08:4148.24265-117.41070179°37km/h29804m8.7m/s-46.9°C0%0hPa0V00:00:0000:00:0000:00:00
WB7NNF2026-09-05 07:08:2148.24361-117.41001332°24km/h29679m2.9m/s-47.0°C0%0hPa0V00:00:0000:00:0000:00:00
WB7NNF2026-09-05 07:07:4048.24547-117.40897229°35km/h29432m4.9m/s-47.0°C0%0hPa0V00:00:0000:00:0000:00:00
WB7NNF2026-09-05 07:07:1948.24645-117.40929172°27km/h29309m5.4m/s-47.6°C0%0hPa0V00:00:0000:00:0000:00:00
WB7NNF2026-09-05 07:06:5948.24706-117.41006132°46km/h29171m7.3m/s-47.7°C0%0hPa0V00:00:0000:00:0000:00:00
WB7NNF2026-09-05 07:06:3948.24767-117.41054322°20km/h29057m7.1m/s-47.8°C0%0hPa0V00:00:0000:00:0000:00:00
WB7NNF2026-09-05 07:06:1848.24804-117.41098185°18km/h28933m4.8m/s-47.6°C0%0hPa0V00:00:0000:00:0000:00:00
WB7NNF2026-09-05 07:05:5748.24788-117.4114813°24km/h28815m5.6m/s-48.2°C0%0hPa0V00:00:0000:00:0000:00:00
WB7NNF2026-09-05 07:05:3748.24780-117.41221248°27km/h28695m7.9m/s-48.6°C0%0hPa0V00:00:0000:00:0000:00:00
WB7NNF2026-09-05 07:05:1648.24799-117.41211154°11km/h28584m8.1m/s-48.9°C0%0hPa0V00:00:0000:00:0000:00:00
WB7NNF2026-09-05 07:04:5548.24873-117.41186260°20km/h28462m5.3m/s-49.4°C0%0hPa0V00:00:0000:00:0000:00:00
WB7NNF2026-09-05 07:04:3548.24993-117.41111206°22km/h28342m8.0m/s-49.9°C0%0hPa0V00:00:0000:00:0000:00:00
WB7NNF2026-09-05 07:04:1448.25060-117.41034251°33km/h28227m4.6m/s-50.0°C0%0hPa0V00:00:0000:00:0000:00:00
WB7NNF2026-09-05 07:03:5448.25129-117.40982273°11km/h28103m9.2m/s-50.0°C0%0hPa0V00:00:0000:00:0000:00:00
WB7NNF2026-09-05 07:03:3348.25175-117.40901189°31km/h27981m5.2m/s-49.6°C0%0hPa0V00:00:0000:00:0000:00:00
WB7NNF2026-09-05 07:03:1348.25229-117.40806270°26km/h27855m6.4m/s-49.5°C0%0hPa0V00:00:0000:00:0000:00:00
WB7NNF2026-09-05 07:02:5248.25287-117.40755130°15km/h27735m6.5m/s-49.4°C0%0hPa0V00:00:0000:00:0000:00:00
WB7NNF2026-09-05 07:02:3248.25346-117.40780171°38km/h27608m6.1m/s-49.5°C0%0hPa0V00:00:0000:00:0000:00:00
WB7NNF2026-09-05 07:02:1148.25458-117.40782124°5km/h27489m2.3m/s-49.3°C0%0hPa0V00:00:0000:00:0000:00:00
WB7NNF2026-09-05 07:01:5148.25635-117.40825163°27km/h27368m7.6m/s-48.9°C0%0hPa0V00:00:0000:00:0000:00:00
WB7NNF2026-09-05 07:01:0848.25788-117.40994141°29km/h27121m4.5m/s-49.2°C0%0hPa0V00:00:0000:00:0000:00:00
WB7NNF2026-09-05 07:00:4748.25780-117.4105833°29km/h27012m1.4m/s-50.5°C0%0hPa0V00:00:0000:00:0000:00:00
WB7NNF2026-09-05 07:00:2748.25749-117.41083360°26km/h26893m6.6m/s-51.2°C0%0hPa0V00:00:0000:00:0000:00:00
WB7NNF2026-09-05 07:00:0648.25722-117.410584km/h26774m7.3m/s-51.0°C0%0hPa0V00:00:0000:00:0000:00:00
WB7NNF2026-09-05 06:59:4648.25731-117.40982251°22km/h26655m7.6m/s-51.5°C0%0hPa0V00:00:0000:00:0000:00:00
WB7NNF2026-09-05 06:59:2548.25754-117.40856230°55km/h26540m1.8m/s-50.9°C0%0hPa0V00:00:0000:00:0000:00:00
WB7NNF2026-09-05 06:59:0548.25794-117.40756195°7km/h26424m5.0m/s-50.3°C0%0hPa0V00:00:0000:00:0000:00:00
WB7NNF2026-09-05 06:58:4448.25919-117.40726174°42km/h26304m6.2m/s-50.2°C0%0hPa0V00:00:0000:00:0000:00:00
WB7NNF2026-09-05 06:58:2448.26065-117.40699184°35km/h26179m4.8m/s-51.1°C0%0hPa0V00:00:0000:00:0000:00:00
WB7NNF2026-09-05 06:58:0348.26205-117.40676191°40km/h26054m4.9m/s-50.6°C0%0hPa0V00:00:0000:00:0000:00:00
WB7NNF2026-09-05 06:57:4248.26298-117.406750km/h25940m5.0m/s-50.3°C0%0hPa0V00:00:0000:00:0000:00:00
WB7NNF2026-09-05 06:57:2248.26338-117.4068855°7km/h25819m6.8m/s-50.3°C0%0hPa0V00:00:0000:00:0000:00:00
WB7NNF2026-09-05 06:57:0048.26295-117.4065227km/h25695m4.7m/s-51.0°C0%0hPa0V00:00:0000:00:0000:00:00
WB7NNF2026-09-05 06:56:4048.26250-117.40591319°16km/h25572m4.5m/s-51.3°C0%0hPa0V00:00:0000:00:0000:00:00
WB7NNF2026-09-05 06:56:1748.26168-117.40545340°11km/h25458m5.3m/s-51.5°C0%0hPa0V00:00:0000:00:0000:00:00
WB7NNF2026-09-05 06:55:5748.26137-117.4047918°9km/h25344m6.7m/s-52.1°C0%0hPa0V00:00:0000:00:0000:00:00
WB7NNF2026-09-05 06:55:3648.26106-117.40379274°22km/h25232m5.2m/s-52.2°C0%0hPa0V00:00:0000:00:0000:00:00
WB7NNF2026-09-05 06:55:1548.26120-117.40301229°37km/h25117m2.8m/s-52.3°C0%0hPa0V00:00:0000:00:0000:00:00
WB7NNF2026-09-05 06:54:5448.26163-117.40249208°22km/h25009m2.9m/s-52.8°C0%0hPa0V00:00:0000:00:0000:00:00
WB7NNF2026-09-05 06:54:3448.26192-117.40155270°26km/h24896m3.8m/s-52.8°C0%0hPa0V00:00:0000:00:0000:00:00
WB7NNF2026-09-05 06:54:1248.26234-117.40029213°29km/h24783m4.5m/s-52.3°C0%0hPa0V00:00:0000:00:0000:00:00
WB7NNF2026-09-05 06:53:5148.26260-117.39973267°13km/h24676m4.8m/s-53.1°C0%0hPa0V00:00:0000:00:0000:00:00
WB7NNF2026-09-05 06:53:3048.26262-117.39895268°42km/h24571m6.9m/s-53.9°C0%0hPa0V00:00:0000:00:0000:00:00
WB7NNF2026-09-05 06:53:1048.26290-117.39821224°29km/h24460m5.5m/s-53.5°C0%0hPa0V00:00:0000:00:0000:00:00
WB7NNF2026-09-05 06:52:4948.26291-117.39783348°13km/h24361m4.5m/s-53.5°C0%0hPa0V00:00:0000:00:0000:00:00
WB7NNF2026-09-05 06:52:2948.26307-117.39721300°7km/h24250m6.2m/s-52.9°C0%0hPa0V00:00:0000:00:0000:00:00
WB7NNF2026-09-05 06:52:0848.26321-117.396325km/h24142m7.0m/s-52.7°C0%0hPa0V00:00:0000:00:0000:00:00
WB7NNF2026-09-05 06:51:4848.26327-117.39596328°4km/h24030m6.7m/s-53.4°C0%0hPa0V00:00:0000:00:0000:00:00
WB7NNF2026-09-05 06:51:2748.26320-117.39599324°4km/h23917m5.4m/s-53.6°C0%0hPa0V00:00:0000:00:0000:00:00
WB7NNF2026-09-05 06:51:0548.26292-117.39562351°13km/h23800m5.7m/s-54.5°C0%0hPa0V00:00:0000:00:0000:00:00
WB7NNF2026-09-05 06:50:4548.26253-117.3949018°18km/h23688m4.8m/s-54.1°C0%0hPa0V00:00:0000:00:0000:00:00
WB7NNF2026-09-05 06:50:2448.26185-117.39377299°33km/h23578m8.2m/s-54.4°C0%0hPa0V00:00:0000:00:0000:00:00
WB7NNF2026-09-05 06:50:0348.26125-117.39203268°16km/h23473m5.5m/s-54.5°C0%0hPa0V00:00:0000:00:0000:00:00
WB7NNF2026-09-05 06:49:4348.26115-117.39096268°18km/h23364m3.2m/s-54.2°C0%0hPa0V00:00:0000:00:0000:00:00
WB7NNF2026-09-05 06:49:2248.26140-117.39067121°11km/h23255m5.6m/s-53.6°C0%0hPa0V00:00:0000:00:0000:00:00
WB7NNF2026-09-05 06:48:4148.26254-117.391004km/h23047m7.6m/s-53.0°C0%0hPa0V00:00:0000:00:0000:00:00
WB7NNF2026-09-05 06:48:2148.26260-117.3914239°11km/h22935m5.3m/s-53.6°C0%0hPa0V00:00:0000:00:0000:00:00
WB7NNF2026-09-05 06:48:0048.26239-117.39156335°2km/h22829m6.3m/s-53.8°C0%0hPa0V00:00:0000:00:0000:00:00
WB7NNF2026-09-05 06:47:4048.26236-117.39103338°9km/h22714m5.3m/s-54.4°C0%0hPa0V00:00:0000:00:0000:00:00
WB7NNF2026-09-05 06:47:1948.26218-117.391420km/h22598m5.2m/s-55.1°C0%0hPa0V00:00:0000:00:0000:00:00
WB7NNF2026-09-05 06:46:5848.26128-117.3918622km/h22493m5.8m/s-55.9°C0%0hPa0V00:00:0000:00:0000:00:00
WB7NNF2026-09-05 06:46:3848.25981-117.3923529°33km/h22384m5.5m/s-56.2°C0%0hPa0V00:00:0000:00:0000:00:00
WB7NNF2026-09-05 06:46:1748.25787-117.39190357°33km/h22280m6.2m/s-55.9°C0%0hPa0V00:00:0000:00:0000:00:00
WB7NNF2026-09-05 06:45:5748.25612-117.39048343°31km/h22173m3.7m/s-55.7°C0%0hPa0V00:00:0000:00:0000:00:00
WB7NNF2026-09-05 06:45:3648.25482-117.38857343°24km/h22069m4.9m/s-55.3°C0%0hPa0V00:00:0000:00:0000:00:00
WB7NNF2026-09-05 06:45:1648.25402-117.38634272°29km/h21957m5.5m/s-55.7°C0%0hPa0V00:00:0000:00:0000:00:00
WB7NNF2026-09-05 06:44:5548.25354-117.38387280°40km/h21851m6.5m/s-55.7°C0%0hPa0V00:00:0000:00:0000:00:00
WB7NNF2026-09-05 06:44:3548.25327-117.38100284°58km/h21739m3.5m/s-55.6°C0%0hPa0V00:00:0000:00:0000:00:00
WB7NNF2026-09-05 06:44:1448.25344-117.37864268°37km/h21631m4.9m/s-55.6°C0%0hPa0V00:00:0000:00:0000:00:00
WB7NNF2026-09-05 06:43:5048.25408-117.37706192°5km/h21499m5.8m/s-56.1°C0%0hPa0V00:00:0000:00:0000:00:00
WB7NNF2026-09-05 06:43:2848.25464-117.37710166°15km/h21386m4.7m/s-56.4°C0%0hPa0V00:00:0000:00:0000:00:00
WB7NNF2026-09-05 06:43:0748.25496-117.37777219°11km/h21282m4.2m/s-55.8°C0%0hPa0V00:00:0000:00:0000:00:00
WB7NNF2026-09-05 06:42:4748.25512-117.37853181°18km/h21177m2.6m/s-55.3°C0%0hPa0V00:00:0000:00:0000:00:00
WB7NNF2026-09-05 06:42:2448.25470-117.3795383°11km/h21058m6.4m/s-54.4°C0%0hPa0V00:00:0000:00:0000:00:00
WB7NNF2026-09-05 06:42:0448.25424-117.38026116°15km/h20936m5.7m/s-53.4°C0%0hPa0V00:00:0000:00:0000:00:00
WB7NNF2026-09-05 06:41:4348.25359-117.3809110°16km/h20827m4.0m/s-53.2°C0%0hPa0V00:00:0000:00:0000:00:00
WB7NNF2026-09-05 06:41:2348.25276-117.38087343°16km/h20726m5.2m/s-53.2°C0%0hPa0V00:00:0000:00:0000:00:00
WB7NNF2026-09-05 06:41:0248.25154-117.38025331°27km/h20621m5.6m/s-53.2°C0%0hPa0V00:00:0000:00:0000:00:00
WB7NNF2026-09-05 06:40:4148.25021-117.37906332°38km/h20526m4.1m/s-53.1°C0%0hPa0V00:00:0000:00:0000:00:00
WB7NNF2026-09-05 06:40:2148.24900-117.37815356°15km/h20426m2.8m/s-54.9°C0%0hPa0V00:00:0000:00:0000:00:00
WB7NNF2026-09-05 06:40:0048.24796-117.37737339°27km/h20333m3.9m/s-55.2°C0%0hPa0V00:00:0000:00:0000:00:00
WB7NNF2026-09-05 06:39:4048.24667-117.37577325°44km/h20234m3.2m/s-54.8°C0%0hPa0V00:00:0000:00:0000:00:00
WB7NNF2026-09-05 06:39:1948.24551-117.37380308°24km/h20140m6.4m/s-54.2°C0%0hPa0V00:00:0000:00:0000:00:00
WB7NNF2026-09-05 06:38:5948.24461-117.37151309°13km/h20038m5.7m/s-53.6°C0%0hPa0V00:00:0000:00:0000:00:00
WB7NNF2026-09-05 06:38:3848.24395-117.36971305°11km/h19942m4.1m/s-54.2°C0%0hPa0V00:00:0000:00:0000:00:00
WB7NNF2026-09-05 06:38:1848.24334-117.36835318°20km/h19838m3.5m/s-54.3°C0%0hPa0V00:00:0000:00:0000:00:00
WB7NNF2026-09-05 06:37:5748.24272-117.36809343°18km/h19740m5.0m/s-54.3°C0%0hPa0V00:00:0000:00:0000:00:00
WB7NNF2026-09-05 06:37:3748.24201-117.36768302°15km/h19636m5.8m/s-54.4°C0%0hPa0V00:00:0000:00:0000:00:00
WB7NNF2026-09-05 06:37:1548.24117-117.36697354°18km/h19531m6.3m/s-54.5°C0%0hPa0V00:00:0000:00:0000:00:00
WB7NNF2026-09-05 06:36:5548.24053-117.366310km/h19434m6.8m/s-54.1°C0%0hPa0V00:00:0000:00:0000:00:00
WB7NNF2026-09-05 06:36:3548.24037-117.36568334°7km/h19330m5.9m/s-53.5°C0%0hPa0V00:00:0000:00:0000:00:00
WB7NNF2026-09-05 06:36:1448.23996-117.3656479°2km/h19225m5.2m/s-53.5°C0%0hPa0V00:00:0000:00:0000:00:00
WB7NNF2026-09-05 06:35:5448.23965-117.36593328°11km/h19123m5.7m/s-53.1°C0%0hPa0V00:00:0000:00:0000:00:00
WB7NNF2026-09-05 06:35:3348.23925-117.36593356°18km/h19026m5.2m/s-53.0°C0%0hPa0V00:00:0000:00:0000:00:00
WB7NNF2026-09-05 06:35:1348.23897-117.3664880°5km/h18922m5.5m/s-53.2°C0%0hPa0V00:00:0000:00:0000:00:00
WB7NNF2026-09-05 06:34:5248.23863-117.3674663°9km/h18827m5.2m/s-53.0°C0%0hPa0V00:00:0000:00:0000:00:00
WB7NNF2026-09-05 06:34:3248.23810-117.3684851°33km/h18724m4.6m/s-53.7°C0%0hPa0V00:00:0000:00:0000:00:00
WB7NNF2026-09-05 06:34:1148.23732-117.3693239°20km/h18626m5.4m/s-53.7°C0%0hPa0V00:00:0000:00:0000:00:00
WB7NNF2026-09-05 06:33:5148.23636-117.36993359°24km/h18526m4.3m/s-53.0°C0%0hPa0V00:00:0000:00:0000:00:00
WB7NNF2026-09-05 06:33:2848.23568-117.3711472°20km/h18417m4.7m/s-52.2°C0%0hPa0V00:00:0000:00:0000:00:00
WB7NNF2026-09-05 06:33:0848.23482-117.3721451°27km/h18320m3.8m/s-51.5°C0%0hPa0V00:00:0000:00:0000:00:00
WB7NNF2026-09-05 06:32:4748.23376-117.3733133°31km/h18221m3.7m/s-51.6°C0%0hPa0V00:00:0000:00:0000:00:00
WB7NNF2026-09-05 06:32:2748.23213-117.3744326°31km/h18121m6.1m/s-51.3°C0%0hPa0V00:00:0000:00:0000:00:00
WB7NNF2026-09-05 06:32:0648.23035-117.3751917°33km/h18026m5.0m/s-51.7°C0%0hPa0V00:00:0000:00:0000:00:00
WB7NNF2026-09-05 06:31:4648.22778-117.3760871km/h17929m3.7m/s-52.3°C0%0hPa0V00:00:0000:00:0000:00:00
WB7NNF2026-09-05 06:31:2548.22473-117.3767060km/h17842m5.6m/s-52.1°C0%0hPa0V00:00:0000:00:0000:00:00
WB7NNF2026-09-05 06:31:0548.22129-117.37694361°53km/h17750m4.7m/s-51.8°C0%0hPa0V00:00:0000:00:0000:00:00
WB7NNF2026-09-05 06:30:4448.21811-117.3767151km/h17661m4.4m/s-51.8°C0%0hPa0V00:00:0000:00:0000:00:00
WB7NNF2026-09-05 06:30:2448.21514-117.37611356°47km/h17564m4.8m/s-52.3°C0%0hPa0V00:00:0000:00:0000:00:00
WB7NNF2026-09-05 06:30:0348.21264-117.3756246km/h17472m4.9m/s-52.4°C0%0hPa0V00:00:0000:00:0000:00:00
WB7NNF2026-09-05 06:29:4348.21020-117.37515349°37km/h17377m4.1m/s-52.2°C0%0hPa0V00:00:0000:00:0000:00:00
WB7NNF2026-09-05 06:29:2248.20814-117.3749242km/h17282m5.0m/s-52.1°C0%0hPa0V00:00:0000:00:0000:00:00
WB7NNF2026-09-05 06:29:0148.20594-117.37498360°38km/h17189m4.2m/s-51.7°C0%0hPa0V00:00:0000:00:0000:00:00
WB7NNF2026-09-05 06:28:4148.20362-117.3747753km/h17093m4.3m/s-52.0°C0%0hPa0V00:00:0000:00:0000:00:00
WB7NNF2026-09-05 06:28:2048.20134-117.37394339°53km/h17002m4.4m/s-51.8°C0%0hPa0V00:00:0000:00:0000:00:00
WB7NNF2026-09-05 06:28:0048.19904-117.37253328°42km/h16904m3.3m/s-51.2°C0%0hPa0V00:00:0000:00:0000:00:00
WB7NNF2026-09-05 06:27:3948.19697-117.37111351°47km/h16816m4.5m/s-50.9°C0%0hPa0V00:00:0000:00:0000:00:00
WB7NNF2026-09-05 06:27:1948.19516-117.36982338°40km/h16716m3.8m/s-51.0°C0%0hPa0V00:00:0000:00:0000:00:00
WB7NNF2026-09-05 06:26:5848.19377-117.3691235km/h16628m4.5m/s-50.7°C0%0hPa0V00:00:0000:00:0000:00:00
WB7NNF2026-09-05 06:26:3848.19251-117.36907353°24km/h16537m5.0m/s-50.0°C0%0hPa0V00:00:0000:00:0000:00:00
WB7NNF2026-09-05 06:26:1748.19128-117.3694526°27km/h16449m5.3m/s-50.2°C0%0hPa0V00:00:0000:00:0000:00:00
WB7NNF2026-09-05 06:25:5748.18974-117.3699519°38km/h16355m3.3m/s-50.8°C0%0hPa0V00:00:0000:00:0000:00:00
WB7NNF2026-09-05 06:25:3648.18773-117.3705053km/h16266m3.3m/s-50.5°C0%0hPa0V00:00:0000:00:0000:00:00
WB7NNF2026-09-05 06:25:1648.18521-117.3709047km/h16173m5.3m/s-50.6°C0%0hPa0V00:00:0000:00:0000:00:00
WB7NNF2026-09-05 06:24:5548.18275-117.3708449km/h16084m3.2m/s-50.3°C0%0hPa0V00:00:0000:00:0000:00:00
WB7NNF2026-09-05 06:24:3548.18024-117.3703244km/h15987m5.7m/s-51.5°C0%0hPa0V00:00:0000:00:0000:00:00
WB7NNF2026-09-05 06:24:1448.17784-117.3703219°46km/h15886m5.1m/s-51.4°C0%0hPa0V00:00:0000:00:0000:00:00
WB7NNF2026-09-05 06:23:3348.17234-117.3725311°71km/h15688m5.6m/s-52.0°C0%0hPa0V00:00:0000:00:0000:00:00
WB7NNF2026-09-05 06:23:1248.16917-117.37341356°57km/h15593m4.3m/s-51.5°C0%0hPa0V00:00:0000:00:0000:00:00
WB7NNF2026-09-05 06:22:5248.16557-117.3740310°68km/h15496m4.4m/s-51.2°C0%0hPa0V00:00:0000:00:0000:00:00
WB7NNF2026-09-05 06:22:3148.16259-117.3747164km/h15401m5.2m/s-51.3°C0%0hPa0V00:00:0000:00:0000:00:00
WB7NNF2026-09-05 06:22:1148.15954-117.3755813°57km/h15309m4.4m/s-51.6°C0%0hPa0V00:00:0000:00:0000:00:00
WB7NNF2026-09-05 06:21:5048.15670-117.3764024°55km/h15220m5.6m/s-51.5°C0%0hPa0V00:00:0000:00:0000:00:00
WB7NNF2026-09-05 06:21:0948.15159-117.3784920°49km/h15039m4.6m/s-51.7°C0%0hPa0V00:00:0000:00:0000:00:00
WB7NNF2026-09-05 06:20:4948.14908-117.37915360°44km/h14948m3.6m/s-51.3°C0%0hPa0V00:00:0000:00:0000:00:00
WB7NNF2026-09-05 06:20:2848.14662-117.3797517°47km/h14862m4.3m/s-51.1°C0%0hPa0V00:00:0000:00:0000:00:00
WB7NNF2026-09-05 06:20:0848.14393-117.3809828°62km/h14770m4.1m/s-51.0°C0%0hPa0V00:00:0000:00:0000:00:00
WB7NNF2026-09-05 06:19:4748.14102-117.3821725°55km/h14678m4.8m/s-50.7°C0%0hPa0V00:00:0000:00:0000:00:00
WB7NNF2026-09-05 06:19:2748.13763-117.3837221°69km/h14579m5.3m/s-50.5°C0%0hPa0V00:00:0000:00:0000:00:00
WB7NNF2026-09-05 06:19:0648.13415-117.3850819°75km/h14486m5.2m/s-50.0°C0%0hPa0V00:00:0000:00:0000:00:00
WB7NNF2026-09-05 06:18:4548.13084-117.3863316°60km/h14400m3.8m/s-49.4°C0%0hPa0V00:00:0000:00:0000:00:00
WB7NNF2026-09-05 06:18:2548.12766-117.3873066km/h14305m4.0m/s-48.7°C0%0hPa0V00:00:0000:00:0000:00:00
WB7NNF2026-09-05 06:18:0448.12479-117.3879758km/h14221m3.9m/s-48.5°C0%0hPa0V00:00:0000:00:0000:00:00
WB7NNF2026-09-05 06:17:4448.12182-117.3885011°64km/h14127m3.5m/s-49.0°C0%0hPa0V00:00:0000:00:0000:00:00
WB7NNF2026-09-05 06:17:2348.11891-117.3892723°57km/h14038m5.6m/s-48.5°C0%0hPa0V00:00:0000:00:0000:00:00
WB7NNF2026-09-05 06:17:0348.11575-117.3900920°64km/h13950m3.8m/s-48.3°C0%0hPa0V00:00:0000:00:0000:00:00
WB7NNF2026-09-05 06:16:4248.11272-117.3904966km/h13860m5.4m/s-47.9°C0%0hPa0V00:00:0000:00:0000:00:00
WB7NNF2026-09-05 06:16:2248.10943-117.3909614°58km/h13767m5.1m/s-47.4°C0%0hPa0V00:00:0000:00:0000:00:00
WB7NNF2026-09-05 06:16:0148.10636-117.3918611°60km/h13676m5.3m/s-47.0°C0%0hPa0V00:00:0000:00:0000:00:00
WB7NNF2026-09-05 06:15:4148.10329-117.3929622°58km/h13588m4.6m/s-47.1°C0%0hPa0V00:00:0000:00:0000:00:00
WB7NNF2026-09-05 06:15:2048.10038-117.3944324°68km/h13506m3.1m/s-47.3°C0%0hPa0V00:00:0000:00:0000:00:00
WB7NNF2026-09-05 06:15:0048.09733-117.3962026°73km/h13419m2.0m/s-47.3°C0%0hPa0V00:00:0000:00:0000:00:00
WB7NNF2026-09-05 06:14:3948.09439-117.3986735°64km/h13330m4.6m/s-47.4°C0%0hPa0V00:00:0000:00:0000:00:00
WB7NNF2026-09-05 06:14:1948.09107-117.4013231°69km/h13242m4.1m/s-46.9°C0%0hPa0V00:00:0000:00:0000:00:00
WB7NNF2026-09-05 06:13:5848.08762-117.4038226°80km/h13159m3.2m/s-46.5°C0%0hPa0V00:00:0000:00:0000:00:00
WB7NNF2026-09-05 06:13:3848.08397-117.4059319°75km/h13072m2.5m/s-46.6°C0%0hPa0V00:00:0000:00:0000:00:00
WB7NNF2026-09-05 06:13:1748.08021-117.4078018°84km/h12988m4.6m/s-46.4°C0%0hPa0V00:00:0000:00:0000:00:00
WB7NNF2026-09-05 06:12:5648.07616-117.4100923°89km/h12905m4.7m/s-46.0°C0%0hPa0V00:00:0000:00:0000:00:00
WB7NNF2026-09-05 06:12:3648.07195-117.4125718°86km/h12824m4.9m/s-45.8°C0%0hPa0V00:00:0000:00:0000:00:00
WB7NNF2026-09-05 06:12:1548.06789-117.4147919°78km/h12743m3.5m/s-45.2°C0%0hPa0V00:00:0000:00:0000:00:00
WB7NNF2026-09-05 06:11:5548.06374-117.4166220°78km/h12657m4.0m/s-45.1°C0%0hPa0V00:00:0000:00:0000:00:00
WB7NNF2026-09-05 06:11:3448.05952-117.4185920°89km/h12576m5.1m/s-44.8°C0%0hPa0V00:00:0000:00:0000:00:00
WB7NNF2026-09-05 06:11:1448.05474-117.4205722°88km/h12487m3.7m/s-44.5°C0%0hPa0V00:00:0000:00:0000:00:00
WB7NNF2026-09-05 06:10:5348.05038-117.4226321°80km/h12403m3.9m/s-44.2°C0%0hPa0V00:00:0000:00:0000:00:00
WB7NNF2026-09-05 06:10:3348.04611-117.4246519°82km/h12301m6.8m/s-43.3°C0%0hPa0V00:00:0000:00:0000:00:00
WB7NNF2026-09-05 06:10:1248.04221-117.4267018°73km/h12206m5.2m/s-43.1°C0%0hPa0V00:00:0000:00:0000:00:00
WB7NNF2026-09-05 06:09:5248.03799-117.4288018°89km/h12111m4.9m/s-42.6°C0%0hPa0V00:00:0000:00:0000:00:00
WB7NNF2026-09-05 06:09:3248.03369-117.4306019°89km/h12023m4.6m/s-42.5°C0%0hPa0V00:00:0000:00:0000:00:00
WB7NNF2026-09-05 06:09:1148.02906-117.4324313°95km/h11939m3.3m/s-42.4°C0%0hPa0V00:00:0000:00:0000:00:00
WB7NNF2026-09-05 06:08:5048.02463-117.4342018°82km/h11851m4.8m/s-41.9°C0%0hPa0V00:00:0000:00:0000:00:00
WB7NNF2026-09-05 06:08:2948.02021-117.4363023°82km/h11761m4.6m/s-41.7°C0%0hPa0V00:00:0000:00:0000:00:00
WB7NNF2026-09-05 06:08:0748.01643-117.4384518°78km/h11680m3.4m/s-41.3°C0%0hPa0V00:00:0000:00:0000:00:00
WB7NNF2026-09-05 06:07:4548.01217-117.4413625°84km/h11586m3.7m/s-41.3°C0%0hPa0V00:00:0000:00:0000:00:00
WB7NNF2026-09-05 06:07:2448.00793-117.4441123°80km/h11503m3.0m/s-41.2°C0%0hPa0V00:00:0000:00:0000:00:00
WB7NNF2026-09-05 06:07:0248.00336-117.4470026°89km/h11420m2.9m/s-40.8°C0%0hPa0V00:00:0000:00:0000:00:00
WB7NNF2026-09-05 06:06:4147.99887-117.4495822°91km/h11346m2.8m/s-40.8°C0%0hPa0V00:00:0000:00:0000:00:00
WB7NNF2026-09-05 06:06:2147.99373-117.4522222°113km/h11276m3.8m/s-41.0°C0%0hPa0V00:00:0000:00:0000:00:00
WB7NNF2026-09-05 06:06:0047.98873-117.4546217°104km/h11208m2.5m/s-41.1°C0%0hPa0V00:00:0000:00:0000:00:00
WB7NNF2026-09-05 06:05:4047.98339-117.4567315°108km/h11132m4.4m/s-41.6°C0%0hPa0V00:00:0000:00:0000:00:00
WB7NNF2026-09-05 06:05:1947.97812-117.4585913°110km/h11057m4.2m/s-41.8°C0%0hPa0V00:00:0000:00:0000:00:00
WB7NNF2026-09-05 06:04:5947.97251-117.45988104km/h10976m4.2m/s-42.0°C0%0hPa0V00:00:0000:00:0000:00:00
WB7NNF2026-09-05 06:04:3847.96707-117.46053360°100km/h10895m6.2m/s-42.5°C0%0hPa0V00:00:0000:00:0000:00:00
WB7NNF2026-09-05 06:04:1847.96212-117.4604686km/h10807m4.5m/s-42.5°C0%0hPa0V00:00:0000:00:0000:00:00
WB7NNF2026-09-05 06:03:5847.95792-117.46006354°62km/h10728m2.8m/s-43.1°C0%0hPa0V00:00:0000:00:0000:00:00
WB7NNF2026-09-05 06:03:3747.95430-117.45989357°71km/h10635m3.4m/s-43.5°C0%0hPa0V00:00:0000:00:0000:00:00
WB7NNF2026-09-05 06:03:1647.95063-117.4604462km/h10542m4.3m/s-43.0°C0%0hPa0V00:00:0000:00:0000:00:00
WB7NNF2026-09-05 06:02:5547.94744-117.4614058km/h10456m5.1m/s-42.6°C0%0hPa0V00:00:0000:00:0000:00:00
WB7NNF2026-09-05 06:02:3547.94403-117.4629123°58km/h10356m3.8m/s-42.3°C0%0hPa0V00:00:0000:00:0000:00:00
WB7NNF2026-09-05 06:02:1447.94047-117.4650316°84km/h10268m2.5m/s-42.4°C0%0hPa0V00:00:0000:00:0000:00:00
WB7NNF2026-09-05 06:01:5447.93612-117.4681530°102km/h10175m5.6m/s-42.1°C0%0hPa0V00:00:0000:00:0000:00:00
WB7NNF2026-09-05 06:01:3347.93169-117.4716231°106km/h10094m4.1m/s-42.1°C0%0hPa0V00:00:0000:00:0000:00:00
WB7NNF2026-09-05 06:01:1347.92682-117.4757031°106km/h10009m4.9m/s-41.6°C0%0hPa0V00:00:0000:00:0000:00:00
WB7NNF2026-09-05 06:00:5247.92193-117.4795828°110km/h9930m4.6m/s-41.2°C0%0hPa0V00:00:0000:00:0000:00:00
WB7NNF2026-09-05 06:00:3247.91682-117.4836934°119km/h9847m3.9m/s-41.1°C0%0hPa0V00:00:0000:00:0000:00:00
WB7NNF2026-09-05 06:00:1247.91164-117.4878129°126km/h9765m3.3m/s-41.0°C0%0hPa0V00:00:0000:00:0000:00:00
WB7NNF2026-09-05 05:59:5147.90586-117.4921328°113km/h9681m4.0m/s-40.8°C0%0hPa0V00:00:0000:00:0000:00:00
WB7NNF2026-09-05 05:59:3047.90040-117.4960830°115km/h9605m2.5m/s-40.8°C0%0hPa0V00:00:0000:00:0000:00:00
WB7NNF2026-09-05 05:59:1047.89468-117.4995019°113km/h9527m4.1m/s-41.3°C0%0hPa0V00:00:0000:00:0000:00:00
WB7NNF2026-09-05 05:58:4947.88919-117.5022819°113km/h9453m3.7m/s-41.4°C0%0hPa0V00:00:0000:00:0000:00:00
WB7NNF2026-09-05 05:58:2947.88334-117.5053724°115km/h9377m3.0m/s-41.5°C0%0hPa0V00:00:0000:00:0000:00:00
WB7NNF2026-09-05 05:58:0847.87782-117.5082824°106km/h9302m2.9m/s-41.4°C0%0hPa0V00:00:0000:00:0000:00:00
WB7NNF2026-09-05 05:57:4747.87251-117.5112123°110km/h9228m3.5m/s-41.6°C0%0hPa0V00:00:0000:00:0000:00:00
WB7NNF2026-09-05 05:57:2747.86694-117.5140619°110km/h9151m3.3m/s-41.3°C0%0hPa0V00:00:0000:00:0000:00:00
WB7NNF2026-09-05 05:57:0647.86168-117.5168626°104km/h9079m3.2m/s-41.2°C0%0hPa0V00:00:0000:00:0000:00:00
WB7NNF2026-09-05 05:56:4647.85635-117.5199321°113km/h8998m2.8m/s-40.9°C0%0hPa0V00:00:0000:00:0000:00:00
WB7NNF2026-09-05 05:56:2547.85118-117.5229626°99km/h8918m4.4m/s-41.1°C0%0hPa0V00:00:0000:00:0000:00:00
WB7NNF2026-09-05 05:56:0547.84598-117.5259624°100km/h8834m5.3m/s-40.6°C0%0hPa0V00:00:0000:00:0000:00:00
WB7NNF2026-09-05 05:55:4447.84104-117.5286628°89km/h8744m6.2m/s-40.1°C0%0hPa0V00:00:0000:00:0000:00:00
WB7NNF2026-09-05 05:55:2447.83652-117.5317429°102km/h8653m3.4m/s-39.6°C0%0hPa0V00:00:0000:00:0000:00:00
WB7NNF2026-09-05 05:55:0347.83201-117.5350025°104km/h8572m3.2m/s-39.3°C0%0hPa0V00:00:0000:00:0000:00:00
WB7NNF2026-09-05 05:54:4347.82695-117.5381627°102km/h8486m4.8m/s-38.9°C0%0hPa0V00:00:0000:00:0000:00:00
WB7NNF2026-09-05 05:54:2247.82196-117.5415227°102km/h8409m4.3m/s-38.7°C0%0hPa0V00:00:0000:00:0000:00:00
WB7NNF2026-09-05 05:53:4147.81165-117.5481922°108km/h8252m5.0m/s-37.9°C0%0hPa0V00:00:0000:00:0000:00:00
WB7NNF2026-09-05 05:53:2147.80643-117.5512521°102km/h8168m5.8m/s-37.4°C0%0hPa0V00:00:0000:00:0000:00:00
WB7NNF2026-09-05 05:53:0047.80134-117.5542720°100km/h8086m5.2m/s-37.1°C0%0hPa0V00:00:0000:00:0000:00:00
WB7NNF2026-09-05 05:52:3847.79621-117.5570825°100km/h8006m4.7m/s-37.7°C0%0hPa0V00:00:0000:00:0000:00:00
WB7NNF2026-09-05 05:52:1747.79181-117.5602230°95km/h7939m3.5m/s-38.1°C0%0hPa0V00:00:0000:00:0000:00:00
WB7NNF2026-09-05 05:51:5747.78695-117.5639320°95km/h7863m3.8m/s-37.6°C0%0hPa0V00:00:0000:00:0000:00:00
WB7NNF2026-09-05 05:51:3647.78282-117.5665626°93km/h7795m4.0m/s-37.1°C0%0hPa0V00:00:0000:00:0000:00:00
WB7NNF2026-09-05 05:51:1547.77860-117.5689820°86km/h7723m4.5m/s-37.1°C0%0hPa0V00:00:0000:00:0000:00:00
WB7NNF2026-09-05 05:50:5547.77414-117.5715323°88km/h7650m3.8m/s-37.1°C0%0hPa0V00:00:0000:00:0000:00:00
WB7NNF2026-09-05 05:50:3447.76988-117.5742326°91km/h7580m2.8m/s-36.8°C0%0hPa0V00:00:0000:00:0000:00:00
WB7NNF2026-09-05 05:50:1447.76531-117.5763880km/h7499m3.2m/s-36.8°C0%0hPa0V00:00:0000:00:0000:00:00
WB7NNF2026-09-05 05:49:3347.75864-117.5806431°62km/h7280m6.7m/s-35.3°C0%0hPa0V00:00:0000:00:0000:00:00
WB7NNF2026-09-05 05:49:1247.75593-117.5821512°69km/h7177m4.3m/s-34.6°C0%0hPa0V00:00:0000:00:0000:00:00
WB7NNF2026-09-05 05:48:5047.75281-117.5835817°49km/h7081m4.5m/s-33.8°C0%0hPa0V00:00:0000:00:0000:00:00
WB7NNF2026-09-05 05:48:2447.74979-117.5854924°64km/h6988m3.4m/s-33.0°C0%0hPa0V00:00:0000:00:0000:00:00
WB7NNF2026-09-05 05:48:0447.74731-117.5871126°62km/h6908m4.3m/s-32.3°C0%0hPa0V00:00:0000:00:0000:00:00
WB7NNF2026-09-05 05:47:4347.74473-117.5886716°57km/h6830m3.6m/s-31.6°C0%0hPa0V00:00:0000:00:0000:00:00
WB7NNF2026-09-05 05:47:2247.74217-117.5903120°64km/h6759m4.4m/s-31.1°C0%0hPa0V00:00:0000:00:0000:00:00
WB7NNF2026-09-05 05:46:4147.73674-117.5933121°62km/h6601m4.9m/s-29.8°C0%0hPa0V00:00:0000:00:0000:00:00
WB7NNF2026-09-05 05:46:2147.73393-117.5948917°57km/h6520m4.3m/s-29.0°C0%0hPa0V00:00:0000:00:0000:00:00
WB7NNF2026-09-05 05:45:5647.73079-117.5969936°47km/h6409m5.7m/s-27.9°C0%0hPa0V00:00:0000:00:0000:00:00
WB7NNF2026-09-05 05:45:3447.72801-117.5989221°51km/h6312m4.7m/s-27.1°C0%0hPa0V00:00:0000:00:0000:00:00
WB7NNF2026-09-05 05:45:1347.72524-117.6008831°71km/h6229m1.0m/s-26.5°C0%0hPa0V00:00:0000:00:0000:00:00
WB7NNF2026-09-05 05:44:4947.72225-117.6032637°62km/h6121m4.3m/s-25.5°C0%0hPa0V00:00:0000:00:0000:00:00
WB7NNF2026-09-05 05:44:2747.71967-117.6054234°42km/h6026m3.1m/s-25.0°C0%0hPa0V00:00:0000:00:0000:00:00
WB7NNF2026-09-05 05:43:4447.71545-117.6086023°40km/h5853m4.2m/s-23.7°C0%0hPa0V00:00:0000:00:0000:00:00
WB7NNF2026-09-05 05:42:5947.71090-117.6116522°42km/h5659m4.7m/s-22.2°C0%0hPa0V00:00:0000:00:0000:00:00


GPX KML Map

© wettersonde.net (DO2JMG) - 2026  -  -